Regional Weather Roundup
Issued by NWS

Home | Current Version | Previous Version | Text Only | Print | Product List | Glossary Off
Versions: 1 2 3 4 5 6 7 8 9 10 11 12 13 14 15 16 17 18 19 20 21 22 23 24 25 26 27 28 29 30 31 32 33 34 35 36 37 38 39 40 41 42 43 44 45 46 47 48 49 50

000
ASUS43 KDMX 261206
RWRIA

WEATHER ROUNDUP FOR IOWA
NATIONAL WEATHER SERVICE DES MOINES IA
700 AM CDT SUN MAR 26 2017

NOTE: "FAIR" INDICATES FEW OR NO CLOUDS BELOW 12,000 FEET WITH NO
SIGNIFICANT WEATHER AND/OR OBSTRUCTIONS TO VISIBILITY.

* - THESE STATIONS ARE NOT NWS STATIONS...THUS NOT UNDER NWS
QUALITY CONTROL.  THEY ALSO DO NOT REPORT WEATHER SUCH
AS PRECIPITATION OR FOG.

IAZ001>003-012>014-020>022-031>034-043>046-261300-
   NORTHWEST IOWA

CITY           SKY/WX    TMP DP  RH WIND       PRES   REMARKS
CARROLL *      CLOUDY    37  37 100 N9        29.88R FOG     WCI  31
CHEROKEE *     RAIN      37  37 100 N3        29.90R
LE MARS *      CLOUDY    37  37 100 N5        29.92S FOG     WCI  34
ORANGE CITY *  DRIZZLE   37  37 100 N3        29.91R
SHELDON *      CLOUDY    36  36 100 N6        29.90R FOG     WCI  31
SIOUX CITY     CLOUDY    39  38  96 N6        29.91S WCI  35
6HR MIN TEMP:  38; 6HR MAX TEMP:  39;

SPENCER        LGT RAIN  37  36  96 NE7       29.90S FOG     WCI  32
6HR MIN TEMP:  37; 6HR MAX TEMP:  37; 6HR PCP: TRACE;

STORM LAKE *   CLOUDY    36  36 100 NE8       29.88S FOG     WCI  29
$$

IAZ055>058-069>071-079>083-090>094-261300-
   SOUTHWEST IOWA

CITY           SKY/WX    TMP DP  RH WIND       PRES   REMARKS
ATLANTIC *     CLOUDY    39  39 100 N6        29.88S WCI  35
AUDUBON *      CLOUDY    37  36  93 N3        29.88S FOG
CLARINDA *     CLOUDY    41  41 100 N3        29.91R FOG
COUNCIL BLFS * CLOUDY    39  39 100 NW6       29.89R WCI  35
CRESTON *      CLOUDY    39  39 100 NW10      29.88R FOG     WCI  32
HARLAN  *      CLOUDY    39  39 100 N8        29.91S WCI  34
LAMONI         CLOUDY    40  40 100 NW7       29.84F FOG
6HR MIN TEMP:  40; 6HR MAX TEMP:  42;

RED OAK *      CLOUDY    41  41 100 N7        29.89R
SHENANDOAH *   CLOUDY    41  41 100 CALM      29.90R FOG
$$

IAZ047>049-059>061-072>074-084-261300-
   CENTRAL IOWA

CITY           SKY/WX    TMP DP  RH WIND       PRES   REMARKS
AMES           CLOUDY    40  40 100 N9        29.86R WCI  34
6HR MIN TEMP:  40; 6HR MAX TEMP:  40; 6HR PCP:  0.01;

ANKENY *       CLOUDY    41  39  93 NW8       29.87R
BOONE *        FOG       39  39 100 N10       29.85S VSB 3/4 WCI  32
CHARITON *     FOG       41  41 100 NW9       29.84S VSB 1/2
DES MOINES     FOG       41  40  96 N7        29.85S VSB 3/4
6HR MIN TEMP:  41; 6HR MAX TEMP:  42; 6HR PCP:  0.03;

GRINNELL*      FOG       40  40  98 N7        29.84R VSB 1
MARSHALLTOWN   LGT RAIN  39  39 100 NE8       29.84R FOG     WCI  33
6HR MIN TEMP:  39; 6HR MAX TEMP:  40; 6HR PCP:  0.19;

NEWTON *       CLOUDY    41  39  93 N8        29.83R FOG
PELLA *        DRIZZLE   41  41  99 N5        29.84S
PERRY *        CLOUDY    39  38  97 N8        29.86S FOG     WCI  34
$$

IAZ004>006-015-016-023>025-035-036-261300-
   NORTH CENTRAL IOWA

CITY           SKY/WX    TMP DP  RH WIND       PRES   REMARKS
ALGONA *       CLOUDY    37  37 100 N7        29.89S FOG     WCI  32
CLARION *      CLOUDY    37  37 100 N7        29.88R FOG     WCI  32
ESTHERVILLE    CLOUDY    35  35 100 N8        29.90R FOG     WCI  29
6HR MIN TEMP:  35; 6HR MAX TEMP:  36;

FORT DODGE *   CLOUDY    37  34  87 N6        29.89R WCI  33
MASON CITY     CLOUDY    36  36 100 N8        29.89R WCI  30
6HR MIN TEMP:  36; 6HR MAX TEMP:  37;

FOREST CITY *  CLOUDY    36  36 100 N6        29.88R FOG     WCI  31
WEBSTER CITY * CLOUDY    37  37 100 N7        29.85S FOG     WCI  32
IOWA FALLS *   CLOUDY    39  38  97 N6        29.87R FOG     WCI  34
$$

IAZ007>011-017>019-026>030-037>042-050>054-066-261300-
   NORTHEAST IOWA

CITY           SKY/WX    TMP DP  RH WIND       PRES   REMARKS
CEDAR RAPIDS   CLOUDY    42  42 100 N6        29.81R FOG
6HR MIN TEMP:  42; 6HR MAX TEMP:  43; 6HR PCP: TRACE;

CHARLES CITY * CLOUDY    37  37 100 NE12      29.86S WCI  30
CLINTON *      FOG       47  47 100 NE9       29.82R VSB 1/4
DECORAH *      LGT RAIN  36  36 100 VRB6      29.86S WCI  31
DUBUQUE        FOG       41  41 100 NE9       29.83R VSB 1/4
6HR MIN TEMP:  40; 6HR MAX TEMP:  41; 6HR PCP:  0.08;

MONTICELLO *   CLOUDY    43  41  93 NE7       29.83R FOG
OELWEIN *      FOG       39  39 100 NE12      29.84S VSB 1   WCI  32
WATERLOO       CLOUDY    39  38  96 NE8       29.85R FOG     WCI  33
6HR MIN TEMP:  39; 6HR MAX TEMP:  39; 6HR PCP:  0.05;

$$

IAZ064-065-067-068-078-261300-
   EAST CENTRAL IOWA

CITY           SKY/WX    TMP DP  RH WIND       PRES   REMARKS
DAVENPORT      FOG       47  47 100 E7        29.81R VSB 1/4
6HR MIN TEMP:  45; 6HR MAX TEMP:  48; 6HR PCP:  0.01;

IOWA CITY      FOG       46  45  96 N7        29.82S VSB 3/4
6HR MIN TEMP:  45; 6HR MAX TEMP:  46; 6HR PCP:  0.01;

MUSCATINE *    FOG       48  48 100 NE6       29.80S VSB 1/4
QUAD CITIES    FOG       50  48  93 E6        29.80R VSB 1/4
6HR MIN TEMP:  47; 6HR MAX TEMP:  50; 6HR PCP:  0.01;

$$

IAZ062-063-075>077-085>089-095>099-261300-
   SOUTHEAST IOWA

CITY           SKY/WX    TMP DP  RH WIND       PRES   REMARKS
BURLINGTON     CLOUDY    53  52  96 S9        29.78R
6HR MIN TEMP:  53; 6HR MAX TEMP:  57;

FAIRFIELD *    FOG       46  46 100 W6        29.80R VSB<1/4
FORT MADISON * FOG       52  52 100 S10       29.80R VSB 1/2
KEOKUK *       CLOUDY    48  48 100 SW12      29.79R FOG
OSKALOOSA *    DRZL/FOG  42  42  99 NW8       29.82R VSB 3/4
OTTUMWA        FOG       44  44 100 NW9       29.81R VSB 1
6HR MIN TEMP:  44; 6HR MAX TEMP:  46; 6HR PCP:  0.36;

WASHINGTON *   FOG       46  45  93 NE10      29.81R VSB<1/4
$$

ABBREVIATIONS USED IN REMARKS
   TC - TEMPERATURES IN CELSIUS
  WCI - WIND CHILL INDEX
   HX - HEAT INDEX
  VSB - VISIBILITY
$$




USA.gov is the U.S. government's official web portal to all federal, state and local government web resources and services.